FW2569 Weather Reports


Display with metric or nautical units.
time (UTC)temp
F
wind
direction
speed
MPH
gust
MPH
rain 1hr
in
rain 24hr
in
rain mn
in
humidity
%
barometer
mb
20210622061523 74 51 17.0 27.0 0.13 0.53 0.17 92 1012.0
20210622060208 79 52 2.0 4.0 0.01 0.41 0.01 97 1012.2
20210622054735 79 226 0.0 0.0 0.02 0.41 0.01 96 1011.8
20210622053043 79 218 0.0 2.0 0.02 0.40 0.00 96 1011.9
20210622051536 79 240 0.0 2.0 0.02 0.40 0.00 96 1012.2
20210622050109 79 94 0.0 1.0 0.02 0.40 0.00 95 1012.3
20210622044831 79 59 1.0 10.0 0.01 0.39 0.39 95 1012.7
20210622043109 80 63 1.0 8.0 0.00 0.38 0.38 94 1011.4
20210622041515 80 188 2.0 7.0 0.00 0.38 0.38 94 1010.6
20210622034629 80 181 0.0 4.0 0.00 0.38 0.38 94 1011.3
20210622033114 80 140 2.0 6.0 0.00 0.38 0.38 94 1011.2
20210622031530 80 96 0.0 0.0 0.00 0.38 0.38 94 1011.1
20210622024701 80 79 0.0 1.0 0.00 0.38 0.38 93 1010.5
20210622023046 81 134 0.0 1.0 0.00 0.38 0.38 91 1009.6
20210622021540 81 197 0.0 3.0 0.00 0.38 0.38 90 1009.1
20210622014600 82 153 2.0 5.0 0.00 0.38 0.38 89 1009.4
20210622013032 82 155 0.0 4.0 0.00 0.38 0.38 88 1009.1
20210622011719 83 164 0.0 4.0 0.00 0.38 0.38 86 1008.6
20210622004616 85 205 2.0 6.0 0.00 0.38 0.38 83 1008.6
20210622003016 85 178 4.0 10.0 0.00 0.38 0.38 82 1008.6
20210622001637 86 151 4.0 7.0 0.00 0.38 0.38 81 1008.5
20210622000026 86 166 3.0 8.0 0.00 0.38 0.38 80 1008.2
20210621234744 87 198 6.0 11.0 0.00 0.38 0.38 79 1008.0
20210621233057 88 159 7.0 15.0 0.00 0.38 0.38 79 1007.8
20210621231634 88 155 5.0 12.0 0.00 0.38 0.38 80 1007.5
20210621230050 88 146 6.0 11.0 0.00 0.38 0.38 79 1007.5
20210621224617 88 160 5.0 11.0 0.00 0.38 0.38 79 1007.2
20210621223040 88 150 4.0 9.0 0.00 0.38 0.38 79 1007.6
20210621221541 88 140 5.0 9.0 0.00 0.38 0.38 79 1007.7
20210621220125 89 114 2.0 8.0 0.00 0.38 0.38 78 1007.8
20210621214829 89 154 2.0 7.0 0.00 0.38 0.38 77 1007.7
20210621214505 89 148 2.0 8.0 0.00 0.38 0.38 78 1007.8
20210621213126 89 136 3.0 9.0 0.00 0.38 0.38 80 1008.2
20210621211522 88 102 5.0 7.0 0.00 0.38 0.38 80 1008.3
20210621210144 89 153 5.0 9.0 0.00 0.38 0.38 75 1008.4
20210621204552 90 118 6.0 12.0 0.00 0.38 0.38 76 1008.3
20210621203236 90 231 5.0 10.0 0.00 0.38 0.38 73 1008.3
20210621201556 89 189 2.0 11.0 0.00 0.38 0.38 77 1008.5
20210621200134 88 203 2.0 6.0 0.00 0.38 0.38 78 1008.6
20210621194545 87 178 3.0 8.0 0.00 0.38 0.38 83 1008.4
20210621193118 84 205 5.0 9.0 0.00 0.38 0.38 90 1008.5
20210621191614 83 217 2.0 6.0 0.04 0.38 0.38 95 1008.4
20210621184544 81 220 4.0 13.0 0.04 0.38 0.38 95 1008.7
20210621183033 84 229 1.0 7.0 0.04 0.38 0.38 93 1008.9
20210621181709 85 217 3.0 9.0 0.00 0.34 0.34 92 1009.0
20210621180020 83 206 4.0 8.0 0.11 0.34 0.34 97 1009.1
20210621174629 82 207 1.0 6.0 0.14 0.34 0.34 98 1009.2
20210621173149 81 140 1.0 5.0 0.14 0.34 0.34 98 1009.4
20210621171650 79 199 1.0 5.0 0.15 0.34 0.34 98 1009.4
20210621170041 79 215 4.0 10.0 0.04 0.23 0.23 96 1009.7
20210621164632 80 235 3.0 9.0 0.06 0.20 0.20 97 1009.7
20210621163057 80 222 3.0 12.0 0.07 0.20 0.20 98 1009.7
20210621161507 80 217 7.0 12.0 0.07 0.19 0.19 97 1010.0
20210621160237 80 196 5.0 14.0 0.19 0.19 0.19 98 1009.9
20210621154751 80 219 9.0 12.0 0.13 0.13 0.15 97 1010.0
20210621154536 80 179 9.0 12.0 0.13 0.13 0.13 97 1010.0
20210621153125 81 206 6.0 15.0 0.13 0.13 0.13 97 1009.8
20210621151630 79 181 5.0 16.0 0.12 0.12 0.12 96 1009.8
20210621144630 84 172 6.0 10.0 0.00 0.00 0.00 86 1009.9
20210621143023 83 169 5.0 10.0 0.00 0.00 0.00 88 1009.8
20210621141653 82 160 4.0 12.0 0.00 0.00 0.00 88 1009.6
20210621140050 82 181 6.0 13.0 0.00 0.00 0.00 88 1009.8
20210621134620 82 178 4.0 9.0 0.00 0.00 0.00 88 1010.0
20210621133056 81 166 5.0 8.0 0.00 0.00 0.00 89 1009.9
20210621131631 80 152 1.0 4.0 0.00 0.00 0.00 91 1009.6
20210621131501 80 149 2.0 4.0 0.00 0.00 0.00 91 1009.6
20210621130115 80 153 2.0 6.0 0.00 0.00 0.00 92 1009.4
20210621124745 79 136 1.0 4.0 0.00 0.00 0.00 93 1009.3
20210621123136 79 141 0.0 2.0 0.00 0.00 0.00 93 1009.1
20210621121525 79 175 0.0 4.0 0.00 0.00 0.00 93 1008.9
20210621120220 78 139 2.0 5.0 0.00 0.00 0.00 93 1008.7
20210621114511 78 155 1.0 5.0 0.00 0.00 0.00 93 1008.6
20210621113122 78 153 0.0 3.0 0.00 0.00 0.00 93 1008.5
20210621111545 78 162 1.0 4.0 0.00 0.00 0.00 93 1008.2
20210621104541 78 165 0.0 5.0 0.00 0.00 0.00 92 1007.8
20210621103212 79 162 0.0 3.0 0.00 0.00 0.00 91 1007.8
20210621103001 79 154 0.0 3.0 0.00 0.00 0.00 91 1007.8
20210621101639 79 166 0.0 4.0 0.00 0.00 0.00 91 1007.8
20210621094615 79 179 3.0 11.0 0.00 0.00 0.00 90 1007.6
20210621093023 79 193 3.0 10.0 0.00 0.00 0.00 91 1007.6
20210621091702 79 210 5.0 9.0 0.00 0.00 0.00 91 1007.7
20210621090017 79 193 5.0 13.0 0.00 0.00 0.00 91 1007.5
20210621084607 80 218 6.0 12.0 0.00 0.00 0.00 90 1007.5
20210621083041 80 205 4.0 9.0 0.00 0.00 0.00 90 1007.7
20210621081723 79 209 3.0 9.0 0.00 0.00 0.00 90 1007.7
20210621081502 80 188 3.0 12.0 0.00 0.00 0.00 90 1007.7
20210621080032 79 172 5.0 11.0 0.00 0.00 0.00 90 1007.8
20210621074636 79 206 2.0 7.0 0.00 0.00 0.00 90 1007.9
20210621073052 79 201 4.0 7.0 0.00 0.00 0.00 89 1008.0